This is the latest recevied weather packets stored in our database for station/object LKPD. If no packets are shown the sender has not sent any weather packets the latest 1 day(s).
| Time | Temp. | Humidity | Pressure | Rain* | Wind** | Luminosity | Snow |
|---|---|---|---|---|---|---|---|
| 1777995144 | 26.11° C | 29% | 1004 hPa | - | 1.34 m/s, 110° | - | - |
| 1777994398 | 27.22° C | 28% | - | - | 3.13 m/s, 90° | - | - |
| 1777993346 | 26.11° C | 31% | 1004 hPa | - | 3.13 m/s, 100° | - | - |
| 1777991544 | 26.11° C | 31% | 1004 hPa | - | 2.24 m/s, 110° | - | - |
| 1777990798 | 27.22° C | 28% | - | - | 2.24 m/s, 150° | - | - |
| 1777989746 | 26.11° C | 31% | 1005 hPa | - | 1.34 m/s, 0° | - | - |
| 1777987937 | 26.11° C | 29% | 1005 hPa | - | 0.89 m/s, 0° | - | - |
| 1777987184 | 26.11° C | 31% | - | - | 2.24 m/s, 20° | - | - |
| 1777986140 | 25° C | 33% | 1006 hPa | - | 1.34 m/s, 0° | - | - |
| 1777984338 | 25° C | 33% | 1006 hPa | - | 0.89 m/s, 0° | - | - |
| 1777983582 | 25° C | 29% | - | - | 0.89 m/s, 140° | - | - |
| 1777982539 | 23.89° C | 33% | 1006 hPa | - | 0.89 m/s, 0° | - | - |
| 1777980736 | 23.89° C | 33% | 1006 hPa | - | 0.89 m/s, 0° | - | - |
| 1777979982 | 22.78° C | 33% | - | - | 0.89 m/s, 100° | - | - |
| 1777978950 | 23.89° C | 36% | 1007 hPa | - | 0.89 m/s, 0° | - | - |
| 1777977130 | 22.22° C | 35% | 1007 hPa | - | 2.68 m/s, 110° | - | - |
| 1777976382 | 22.22° C | 35% | - | - | 2.24 m/s, 160° | - | - |
| 1777975339 | 21.11° C | 37% | 1007 hPa | - | 0.89 m/s, 0° | - | - |
| 1777973537 | 21.11° C | 40% | 1007 hPa | - | 3.13 m/s, 100° | - | - |
| 1777972781 | 21.11° C | 37% | - | - | 3.13 m/s, 110° | - | - |
| 1777971739 | 20° C | 40% | 1008 hPa | - | 2.24 m/s, 110° | - | - |
| 1777969937 | 20° C | 37% | 1008 hPa | - | 1.34 m/s, 130° | - | - |
| 1777969182 | 20° C | 37% | - | - | 2.24 m/s, 110° | - | - |
| 1777968144 | 18.89° C | 39% | 1008 hPa | - | 2.24 m/s, 0° | - | - |
| 1777966337 | 17.22° C | 48% | 1009 hPa | - | 0.89 m/s, 0° | - | - |
* Rain since midnight (hover to see other rain measurements)
** Current wind speed in m/s (hover to see current wind gust speed)